Regional Weather Roundup
Issued by NWS

Home | Current Version | Previous Version | Text Only | Print | Product List | Glossary Off
Versions: 1 2 3 4 5 6 7 8 9 10 11 12 13 14 15 16 17 18 19 20 21 22 23 24 25 26 27 28 29 30 31 32 33 34 35 36 37 38 39 40 41 42 43 44 45 46 47 48 49 50

557
ASUS44 KLIX 241201
RWRLA
LOUISIANA WEATHER ROUNDUP
NATIONAL WEATHER SERVICE NEW ORLEANS LA
700 AM CDT THU APR 24 2014

NOTE: "FAIR" INDICATES FEW OR NO CLOUDS BELOW 12,000 FEET WITH NO
      SIGNIFICANT WEATHER AND/OR OBSTRUCTIONS TO VISIBILITY.
      SKY/WX - SKY CONDITION AND SIGNIFICANT WEATHER.
      TMP - AIR TEMPERATURE.    DP   - DEWPOINT TEMPERATURE.
      RH  - RELATIVE HUMIDITY.  PRES - PRESSURE.
      HX  - HEAT INDEX.         WCI  - WIND CHILL INDEX.

*  THESE STATIONS ARE NOT NWS OR FAA STATIONS AND ARE NOT UNDER
   NWS QUALITY CONTROL.

LAZ040-048-061>063-065-066-069-241300-
SOUTHEAST LOUISIANA

CITY           SKY/WX    TMP DP  RH WIND       PRES   REMARKS
N.O. AUDUBON     N/A     66  64  93 MISG        N/A
6HR MIN TEMP:  64; 6HR MAX TEMP:  67; 6HR PCP: 16.16;

N.O. INTL ARPT PTCLDY    64  63  96 CALM      29.93R FOG
6HR MIN TEMP:  63; 6HR MAX TEMP:  68;

N.O. LAKEFRONT CLEAR     66  64  93 S3        29.94R FOG
6HR MIN TEMP:  65; 6HR MAX TEMP:  70;

N.O. DOWNTOWN* FAIR      70  63  78 S3        29.94R
6HR MIN TEMP:  68; 6HR MAX TEMP:  72;

SLIDELL        FOG       56  55  97 CALM      29.93R VSB<1/4
6HR MIN TEMP:  56; 6HR MAX TEMP:  64;

BATON ROUGE    CLOUDY    63  60  90 E5        29.92R FOG
6HR MIN TEMP:  60; 6HR MAX TEMP:  68;

BOOTHVILLE     PTCLDY    66  65  96 SE3       29.95R FOG
6HR MIN TEMP:  66; 6HR MAX TEMP:  70;

BELLE CHASSE   FOG       59  57  93 CALM      29.94R VSB 1/2
6HR MIN TEMP:  58; 6HR MAX TEMP:  63;

BOGALUSA*      FOG       59  56  91 CALM      29.95R VSB<1/4
6HR MIN TEMP:  57; 6HR MAX TEMP:  62;

GALLIANO*      NOT AVBL
NEW ROADS*     NOT AVBL
GONZALES*      NOT AVBL
HAMMOND*       NOT AVBL
HOUMA*         PTCLDY    61  57  88 CALM      29.93R FOG
PORT FOURCHON* SUNNY     70  66  88 CALM      29.95R

$$

LAZ041-044-053-054-241300-
SOUTHWEST LOUISIANA

CITY           SKY/WX    TMP DP  RH WIND       PRES   REMARKS
LAKE CHARLES   PTCLDY    67  66  97 S3        29.89R
6HR MIN TEMP:  60; 6HR MAX TEMP:  67;

LAFAYETTE      FOG      N/A N/A N/A CALM      29.90R VSB 1/4
PATTERSON      MOCLDY    61  61 100 CALM      29.95R VSB 1/4
6HR MIN TEMP:  59; 6HR MAX TEMP:  64;

SALT POINT       N/A     68  66  93 CALM      29.91R
6HR MIN TEMP:  67; 6HR MAX TEMP:  71;

NEW IBERIA       N/A     62  61  96 E3        29.90S VSB<1/4
6HR MIN TEMP:  59; 6HR MAX TEMP:  66;

CHENAULT AIRPK NOT AVBL

$$

LAZ027-028-241300-
CENTRAL LOUISIANA

CITY           SKY/WX    TMP DP  RH WIND       PRES   REMARKS
FORT POLK      CLOUDY    65  65 100 CALM      29.91R FOG
6HR MIN TEMP:  63; 6HR MAX TEMP:  65;

ALEXANDRIA INT CLOUDY    66  62  87 SW3       29.90R FOG
6HR MIN TEMP:  61; 6HR MAX TEMP:  66;

ALEXANDRIA     CLOUDY    66  62  87 CALM      29.92R FOG
6HR MIN TEMP:  57; 6HR MAX TEMP:  66;


$$

LAZ001-002-241300-
NORTHWEST LOUISIANA

CITY           SKY/WX    TMP DP  RH WIND       PRES   REMARKS
SHREVEPORT     CLOUDY    64  62  93 S5        29.86S FOG
6HR MIN TEMP:  61; 6HR MAX TEMP:  67;

BARKSDALE AFB  CLOUDY    64  63  94 SE6       29.87R
DTN SHREVEPORT CLOUDY    65  61  87 S7        29.87R
6HR MIN TEMP:  61; 6HR MAX TEMP:  67;


$$

LAZ014-016-241300-
NORTHEAST LOUISIANA

CITY           SKY/WX    TMP DP  RH WIND       PRES   REMARKS
MONROE         PTCLDY    55  51  86 CALM      29.92R
6HR MIN TEMP:  54; 6HR MAX TEMP:  59;

TALLULAH       MOCLDY    57  54  89 CALM      29.93R
6HR MIN TEMP:  56; 6HR MAX TEMP:  61;


$$




USA.gov is the U.S. government's official web portal to all federal, state and local government web resources and services.